TimeEDT,TemperatureF,Dew PointF,Humidity,Sea Level PressureIn,VisibilityMPH,Wind Direction,Wind SpeedMPH,Gust SpeedMPH,PrecipitationIn,Events,Conditions,WindDirDegrees,DateUTC
12:35 AM,59.0,57.2,94,29.89,7.0,Calm,Calm,-,N/A,,Overcast,0,2012-10-03 04:35:00
12:55 AM,59.0,55.4,88,29.88,7.0,North,5.8,-,N/A,,Overcast,10,2012-10-03 04:55:00
1:15 AM,59.0,55.4,88,29.88,10.0,NNE,5.8,-,N/A,,Overcast,20,2012-10-03 05:15:00
1:36 AM,59.0,55.4,88,29.88,10.0,North,3.5,-,N/A,,Overcast,10,2012-10-03 05:36:00
1:56 AM,57.2,55.4,94,29.89,10.0,Calm,Calm,-,N/A,,Overcast,0,2012-10-03 05:56:00
2:11 AM,57.2,55.4,94,29.89,10.0,Calm,Calm,-,N/A,,Overcast,0,2012-10-03 06:11:00
2:31 AM,59.0,55.4,88,29.90,10.0,Calm,Calm,-,N/A,,Overcast,0,2012-10-03 06:31:00
2:51 AM,57.2,57.2,100,29.90,4.0,Calm,Calm,-,N/A,Rain,Light Rain,0,2012-10-03 06:51:00
3:11 AM,57.2,57.2,100,29.90,5.0,Calm,Calm,-,N/A,,Overcast,0,2012-10-03 07:11:00
3:31 AM,57.2,57.2,100,29.90,4.0,Calm,Calm,-,N/A,,Overcast,0,2012-10-03 07:31:00
3:51 AM,57.2,57.2,100,29.90,3.0,Calm,Calm,-,N/A,,Overcast,0,2012-10-03 07:51:00
4:11 AM,57.2,57.2,100,29.91,3.0,Calm,Calm,-,N/A,,Overcast,0,2012-10-03 08:11:00
4:32 AM,57.2,57.2,100,29.91,2.5,Calm,Calm,-,N/A,,Overcast,0,2012-10-03 08:32:00
4:52 AM,57.2,57.2,100,29.92,3.0,Calm,Calm,-,N/A,,Overcast,0,2012-10-03 08:52:00
5:12 AM,57.2,57.2,100,29.93,2.0,SW,3.5,-,N/A,,Overcast,230,2012-10-03 09:12:00
5:32 AM,57.2,57.2,100,29.93,1.2,Calm,Calm,-,N/A,Rain,Light Rain,0,2012-10-03 09:32:00
5:52 AM,57.2,57.2,100,29.94,1.5,WSW,3.5,-,N/A,,Overcast,240,2012-10-03 09:52:00
6:12 AM,57.2,57.2,100,29.94,1.0,WSW,3.5,-,N/A,,Overcast,240,2012-10-03 10:12:00
6:32 AM,57.2,57.2,100,29.95,1.0,Calm,Calm,-,N/A,,Overcast,0,2012-10-03 10:32:00
6:52 AM,57.2,57.2,100,29.96,0.8,Calm,Calm,-,N/A,,Overcast,0,2012-10-03 10:52:00
7:33 AM,57.2,57.2,100,29.96,0.5,Calm,Calm,-,N/A,Fog,Fog,0,2012-10-03 11:33:00
7:53 AM,57.2,57.2,100,29.97,0.2,Calm,Calm,-,N/A,Fog,Fog,0,2012-10-03 11:53:00
8:13 AM,57.2,57.2,100,29.97,0.2,Calm,Calm,-,N/A,Fog,Fog,0,2012-10-03 12:13:00
8:33 AM,57.2,57.2,100,29.97,0.2,Calm,Calm,-,N/A,Fog,Fog,0,2012-10-03 12:33:00
8:53 AM,59.0,57.2,94,29.98,1.0,Calm,Calm,-,N/A,,Overcast,0,2012-10-03 12:53:00
9:13 AM,59.0,59.0,100,29.98,1.0,Calm,Calm,-,N/A,,Overcast,0,2012-10-03 13:13:00
9:33 AM,60.8,59.0,94,30.00,1.8,Calm,Calm,-,N/A,,Overcast,0,2012-10-03 13:33:00
9:53 AM,60.8,60.8,100,30.00,2.0,Calm,Calm,-,N/A,,Overcast,0,2012-10-03 13:53:00
10:14 AM,62.6,60.8,94,30.00,2.5,Calm,Calm,-,N/A,,Overcast,0,2012-10-03 14:14:00
10:34 AM,62.6,60.8,94,30.00,4.0,SSW,5.8,-,N/A,,Overcast,210,2012-10-03 14:34:00
11:14 AM,64.4,59.0,83,30.00,7.0,SW,4.6,-,N/A,,Overcast,220,2012-10-03 15:14:00
11:34 AM,64.4,59.0,83,30.01,10.0,SW,6.9,-,N/A,,Overcast,230,2012-10-03 15:34:00
11:54 AM,64.4,57.2,77,30.01,10.0,SSW,9.2,-,N/A,,Mostly Cloudy,210,2012-10-03 15:54:00
12:14 PM,66.2,57.2,73,30.00,10.0,SW,8.1,-,N/A,,Overcast,230,2012-10-03 16:14:00
12:34 PM,64.4,55.4,73,30.01,10.0,SSW,10.4,-,N/A,,Overcast,210,2012-10-03 16:34:00
12:54 PM,66.2,57.2,73,30.01,10.0,SW,8.1,-,N/A,,Overcast,220,2012-10-03 16:54:00
1:15 PM,64.4,55.4,73,30.01,10.0,SW,10.4,-,N/A,,Overcast,230,2012-10-03 17:15:00
1:35 PM,64.4,55.4,73,30.01,10.0,SW,6.9,-,N/A,,Overcast,230,2012-10-03 17:35:00
1:55 PM,64.4,53.6,68,30.01,10.0,SSW,10.4,-,N/A,,Overcast,210,2012-10-03 17:55:00
2:15 PM,64.4,55.4,73,30.01,10.0,SSW,8.1,-,N/A,,Overcast,210,2012-10-03 18:15:00
2:35 PM,64.4,55.4,73,30.01,10.0,SSW,10.4,-,N/A,,Overcast,210,2012-10-03 18:35:00
2:55 PM,64.4,55.4,73,30.01,10.0,SW,6.9,-,N/A,,Overcast,220,2012-10-03 18:55:00
3:15 PM,62.6,53.6,72,30.01,10.0,SW,8.1,-,N/A,,Overcast,220,2012-10-03 19:15:00
3:35 PM,62.6,55.4,77,30.02,10.0,WSW,9.2,-,N/A,,Overcast,240,2012-10-03 19:35:00
3:55 PM,62.6,55.4,77,30.02,10.0,SSW,6.9,-,N/A,,Overcast,210,2012-10-03 19:55:00
4:16 PM,62.6,55.4,77,30.02,10.0,SSW,5.8,-,N/A,,Overcast,210,2012-10-03 20:16:00
4:31 PM,62.6,55.4,77,30.02,10.0,SW,6.9,-,N/A,,Overcast,220,2012-10-03 20:31:00
4:51 PM,62.6,55.4,77,30.02,10.0,SSW,6.9,-,N/A,,Overcast,210,2012-10-03 20:51:00
5:11 PM,64.4,55.4,73,30.02,10.0,South,4.6,-,N/A,,Overcast,190,2012-10-03 21:11:00
5:31 PM,64.4,53.6,68,30.03,10.0,SSW,8.1,-,N/A,,Overcast,200,2012-10-03 21:31:00
5:51 PM,64.4,53.6,68,30.03,10.0,South,4.6,-,N/A,,Overcast,190,2012-10-03 21:51:00
6:11 PM,62.6,53.6,72,30.03,10.0,SSW,6.9,-,N/A,,Overcast,200,2012-10-03 22:11:00
6:31 PM,62.6,55.4,77,30.04,10.0,SSW,5.8,-,N/A,,Overcast,200,2012-10-03 22:31:00
6:51 PM,62.6,55.4,77,30.04,10.0,South,4.6,-,N/A,,Overcast,190,2012-10-03 22:51:00
7:12 PM,62.6,55.4,77,30.04,10.0,South,3.5,-,N/A,,Overcast,190,2012-10-03 23:12:00
7:32 PM,60.8,55.4,82,30.04,10.0,South,3.5,-,N/A,,Mostly Cloudy,180,2012-10-03 23:32:00
7:52 PM,62.6,55.4,77,30.05,10.0,South,4.6,-,N/A,,Overcast,180,2012-10-03 23:52:00
8:12 PM,62.6,55.4,77,30.05,10.0,Calm,Calm,-,N/A,,Overcast,0,2012-10-04 00:12:00
8:32 PM,62.6,55.4,77,30.06,10.0,South,5.8,-,N/A,,Overcast,170,2012-10-04 00:32:00
8:52 PM,62.6,55.4,77,30.06,10.0,South,5.8,-,N/A,,Overcast,170,2012-10-04 00:52:00
9:12 PM,62.6,55.4,77,30.06,10.0,South,4.6,-,N/A,,Overcast,190,2012-10-04 01:12:00
9:32 PM,62.6,55.4,77,30.06,10.0,South,5.8,-,N/A,,Overcast,180,2012-10-04 01:32:00
9:52 PM,60.8,55.4,82,30.07,10.0,SSW,3.5,-,N/A,,Scattered Clouds,200,2012-10-04 01:52:00
10:13 PM,59.0,55.4,88,30.07,10.0,South,3.5,-,N/A,,Scattered Clouds,170,2012-10-04 02:13:00
10:33 PM,60.8,55.4,82,30.07,10.0,South,4.6,-,N/A,,Mostly Cloudy,170,2012-10-04 02:33:00
10:53 PM,60.8,55.4,82,30.08,10.0,South,4.6,-,N/A,,Overcast,170,2012-10-04 02:53:00
11:13 PM,60.8,55.4,82,30.08,10.0,South,4.6,-,N/A,,Overcast,170,2012-10-04 03:13:00
11:33 PM,60.8,55.4,82,30.07,10.0,SSE,3.5,-,N/A,,Overcast,160,2012-10-04 03:33:00
11:53 PM,60.8,55.4,82,30.07,10.0,SSE,3.5,-,N/A,,Overcast,160,2012-10-04 03:53:00